Location: *
(48.8489°N, 2.3218°E)
Time: 19:00:57
(UTC+00:00)

Aureole 2 Rocket - Pass Details

Date: 23 August 2019
Orbit: 314 x 475 km, 73.9° (Epoch: 13 October)

Event Time Altitude Azimuth Distance (km) Brightness Sun altitude
Rises 18:37:18 0° 350° (N) 2,082 6.2 1.4°
Reaches altitude 10° 18:39:39 10° 11° (N) 1,232 4.7 1.1°
Drops below altitude 10° 18:43:27 10° 103° (ESE) 1,218 3.9 0.5°
Enters shadow 18:45:59 -1° 126° (SE) 2,139 5.2 0.1°
Exits shadow 19:19:08 -72° 155° (SSE) 12,569 9.6 -5.0°
Maximum altitude 20:15:40 19° 256° (WSW) 838 4.3 -13.2°
